Date,TemperatureHighF,TemperatureAvgF,TemperatureLowF,DewpointHighF,DewpointAvgF,DewpointLowF,HumidityHigh,HumidityAvg,HumidityLow,PressureMaxIn,PressureMinIn,WindSpeedMaxMPH,WindSpeedAvgMPH,GustSpeedMaxMPH,PrecipitationSumIn
2013-1-1,38,27,17,19,14,10,78,60,40,30.46,30.19,13,1,13,0.00
2013-1-2,39,24,12,13,10,6,81,56,27,30.52,30.37,8,1,8,0.00
2013-1-3,39,26,18,16,11,6,70,53,35,30.60,30.46,10,1,11,0.00
2013-1-4,37,24,13,8,5,2,68,46,28,30.59,30.42,8,1,8,0.00
2013-1-5,44,28,15,10,6,1,58,39,22,30.63,30.49,11,0,11,0.00
2013-1-6,44,30,17,11,7,4,60,40,24,30.62,30.31,7,0,8,0.00
2013-1-7,51,38,30,20,15,9,56,39,26,30.31,30.03,12,1,12,0.00
2013-1-8,51,36,20,19,16,10,74,47,20,30.36,30.04,16,2,16,0.00
2013-1-9,55,38,22,18,15,12,67,42,22,30.57,30.24,12,1,12,0.00
2013-1-10,47,36,24,18,14,10,60,42,28,30.24,29.83,9,0,9,0.00
2013-1-11,42,33,18,26,7,-7,58,35,19,30.04,29.70,24,4,24,0.00
2013-1-12,36,22,9,4,-2,-9,54,36,19,30.28,30.04,14,1,14,0.00
2013-1-13,33,20,5,5,0,-6,66,43,28,30.39,30.22,9,0,9,0.00
2013-1-14,30,21,15,22,11,-2,80,63,43,30.36,30.18,14,0,14,0.02
2013-1-15,27,18,7,5,2,-4,64,48,34,30.70,30.36,19,2,19,0.00
2013-1-16,42,25,11,16,8,1,66,49,30,30.77,30.59,7,0,7,0.00
2013-1-17,50,31,16,19,13,9,76,50,28,30.77,30.58,7,0,7,0.00
2013-1-18,53,36,22,21,17,11,70,47,26,30.59,30.37,8,0,10,0.00
2013-1-19,56,38,22,22,18,14,74,47,22,30.51,30.37,7,0,7,0.00
2013-1-20,55,36,20,19,13,7,75,43,15,30.47,30.30,5,0,8,0.00
2013-1-21,56,38,21,17,13,9,63,39,19,30.45,30.29,11,1,11,0.00
2013-1-22,59,41,22,19,14,8,63,37,18,30.45,30.30,15,1,15,0.00
2013-1-23,59,40,24,15,11,7,55,32,16,30.49,30.35,8,0,8,0.00
2013-1-24,64,45,26,35,18,7,63,36,16,30.42,30.22,13,1,13,0.00
2013-1-25,59,49,39,40,35,30,74,60,47,30.30,30.12,6,0,6,0.00
2013-1-26,55,48,43,49,40,36,90,75,59,30.15,29.84,17,0,17,0.14
2013-1-27,61,49,38,42,38,33,90,67,38,29.98,29.85,13,1,13,0.00
2013-1-28,58,44,34,40,33,19,91,66,39,29.90,29.70,22,2,22,0.00
2013-1-29,38,33,28,24,15,5,73,49,28,30.11,29.74,38,6,38,0.01
2013-1-30,43,32,20,17,14,9,70,49,28,30.39,30.11,24,3,24,0.00
2013-1-31,54,37,21,25,20,15,83,54,24,30.49,30.34,15,1,15,0.00